Weather History for Astoria, OR

Change the Weather History Date:

Wednesday, November 12, 2014

  Actual Average Record
Temperature  
Mean Temperature 39 °F 48 °F  
Max Temperature 46 °F 54 °F 67 °F (1907)
Min Temperature 32 °F 41 °F 21 °F (1955)
Degree Days  
Heating Degree Days 26 17  
Month to date heating degree days 179 197  
Since 1 July heating degree days 633 1064  
Cooling Degree Days 0 0  
Month to date cooling degree days 0 0  
Year to date cooling degree days 45 12  
Moisture  
Dew Point 13 °F    
Average Humidity 33    
Maximum Humidity 41    
Minimum Humidity 25    
Precipitation  
Precipitation 0.00 in 0.37 in 3.69 in (2008)
Month to date precipitation 3.03 4.01  
Year to date precipitation 58.89 50.23  
Sea Level Pressure  
Sea Level Pressure 30.07 in    
Wind  
Wind Speed 14 mph (East)    
Max Wind Speed 24 mph    
Max Gust Speed 33 mph    
Visibility 10 miles    
Events      
T = Trace of Precipitation, MM = Missing Value Source: NWS Daily Summary

Daily Weather History Graph

Daily Weather History Graph

Search for Another Location

Airport:

Trip Planner

Search our weather history database for the weather conditions in past years. The results will help you decide how hot, cold, wet, or windy it might be!

Date:

Astronomy

Nov. 12, 2014 Rise Set
Actual Time 7:12 AM PST 4:46 PM PST
Civil Twilight 6:40 AM PST 5:18 PM PST
Nautical Twilight 6:03 AM PST 5:54 PM PST
Astronomical Twilight 5:28 AM PST 6:30 PM PST
Moon 10:14 PM PST (11/12) 11:59 AM PST (11/12)
Length of Visible Light 10h 38m
Length of Day
9h 34m
Waning Gibbous, 67% of the Moon is Illuminated
Nov 12
Waning Gibbous
Nov 14
Last Quarter
Nov 22
New
Nov 29
First Quarter
Dec 6
Full

Hourly Weather History & Observations

Time (PST) Temp. Windchill Dew Point Humidity Pressure Visibility Wind Dir Wind Speed Gust Speed Precip Events Conditions
12:55 AM 35.1 °F 25.5 °F 8.1 °F 33% 30.15 in 10.0 mi East 15.0 mph 24.2 mph 0.00 in   Clear
1:55 AM 35.1 °F 26.4 °F 8.1 °F 33% 30.16 in 10.0 mi East 12.7 mph 20.7 mph N/A   Clear
2:55 AM 35.1 °F 24.8 °F 8.1 °F 33% 30.15 in 10.0 mi East 17.3 mph 23.0 mph N/A   Clear
3:55 AM 35.1 °F 25.2 °F 9.0 °F 34% 30.14 in 10.0 mi East 16.1 mph 27.6 mph N/A   Clear
4:55 AM 34.0 °F 25.0 °F 9.0 °F 35% 30.14 in 10.0 mi East 12.7 mph - N/A   Clear
5:55 AM 34.0 °F 25.0 °F 9.0 °F 35% 30.13 in 10.0 mi East 12.7 mph - N/A   Clear
6:55 AM 33.1 °F 26.1 °F 9.0 °F 37% 30.14 in 10.0 mi East 8.1 mph - N/A   Clear
7:55 AM 33.8 °F 24.8 °F 12.2 °F 41% 30.13 in 10.0 mi East 12.7 mph - N/A   Clear
8:55 AM 37.0 °F 28.5 °F 10.9 °F 34% 30.14 in 10.0 mi East 13.8 mph 21.9 mph N/A   Clear
9:55 AM 39.0 °F 31.0 °F 12.0 °F 33% 30.13 in 10.0 mi East 13.8 mph - N/A   Clear
10:55 AM 43.0 °F 36.8 °F 14.0 °F 31% 30.12 in 10.0 mi East 11.5 mph 27.6 mph N/A   Clear
11:55 AM 44.1 °F 37.7 °F 12.9 °F 28% 30.09 in 10.0 mi East 12.7 mph - N/A   Clear
12:55 PM 45.0 °F 38.2 °F 12.9 °F 27% 30.07 in 10.0 mi East 15.0 mph 23.0 mph N/A   Clear
1:55 PM 46.0 °F 38.8 °F 12.9 °F 26% 30.05 in 10.0 mi ESE 18.4 mph 31.1 mph N/A   Clear
2:55 PM 45.0 °F 37.9 °F 14.0 °F 29% 30.05 in 10.0 mi ESE 16.1 mph 24.2 mph N/A   Partly Cloudy
3:55 PM 43.0 °F 38.2 °F 17.1 °F 35% 30.05 in 10.0 mi East 8.1 mph 19.6 mph N/A   Overcast
4:55 PM 41.0 °F 35.2 °F 16.0 °F 36% 30.02 in 10.0 mi East 9.2 mph - N/A   Overcast
5:55 PM 41.0 °F 32.2 °F 17.1 °F 38% 30.01 in 10.0 mi East 18.4 mph - N/A   Overcast
6:55 PM 39.9 °F 31.1 °F 17.1 °F 40% 30.00 in 10.0 mi ENE 17.3 mph - N/A   Overcast
7:55 PM 39.0 °F 29.0 °F 16.0 °F 39% 29.99 in 10.0 mi East 20.7 mph - N/A   Overcast
8:55 PM 37.9 °F 30.0 °F 16.0 °F 41% 29.98 in 10.0 mi East 12.7 mph - N/A   Overcast
9:55 PM 37.9 °F 29.2 °F 15.1 °F 39% 29.97 in 10.0 mi East 15.0 mph - N/A   Overcast
10:55 PM 37.9 °F 29.6 °F 16.0 °F 41% 29.96 in 10.0 mi ENE 13.8 mph - N/A   Overcast
11:55 PM 37.9 °F 29.6 °F 14.0 °F 38% 29.95 in 10.0 mi East 13.8 mph - N/A   Overcast